• In Hungary
  • List of Countries
  • For 7 days
  • Water Temperature
  • Satellite Maps
  • Weather Map
  • News
  • Weather Widgets
  • user-avatar
    Login

    Hourly Weather Lezhe

    Today, 22 July, Sunday

    Time Temperature Precipitation Wind Pressure Humidity
    00:00 +23°C° 0 mm 2 mps 736 mmHg 58%
    01:00 +23°C° 0 mm 2 mps 735 mmHg 56%
    02:00 +23°C° 0 mm 2 mps 735 mmHg 55%
    03:00 +21°C° 0 mm 2 mps 735 mmHg 54%
    04:00 +21°C° 0 mm 2 mps 735 mmHg 53%
    05:00 +24°C° 0 mm 2 mps 735 mmHg 52%
    06:00 +26°C° 0 mm 2 mps 735 mmHg 51%
    07:00 +28°C° 0 mm 2 mps 735 mmHg 51%
    08:00 +29°C° 0 mm 3 mps 735 mmHg 47%
    09:00 +30°C° 0 mm 3 mps 734 mmHg 44%
    10:00 +32°C° 0 mm 4 mps 734 mmHg 41%
    11:00 +33°C° 0 mm 4 mps 734 mmHg 43%
    12:00 +33°C° 0 mm 5 mps 734 mmHg 46%
    13:00 +33°C° 0 mm 5 mps 734 mmHg 48%
    14:00 +32°C° 0 mm 4 mps 734 mmHg 51%
    15:00 +32°C° 0 mm 4 mps 734 mmHg 54%
    16:00 +30°C° 0 mm 3 mps 734 mmHg 57%
    17:00 +28°C° 0 mm 3 mps 734 mmHg 65%
    18:00 +27°C° 0 mm 2 mps 734 mmHg 73%
    19:00 +25°C° 0 mm 1 mps 734 mmHg 81%
    20:00 +24°C° 0 mm 1 mps 734 mmHg 83%
    21:00 +23°C° 0 mm 1 mps 734 mmHg 85%
    22:00 +23°C° 0 mm 1 mps 734 mmHg 87%
    23:00 +23°C° 0 mm 1 mps 734 mmHg 85%

    Tomorrow, 23 July, Monday

    Time Temperature Precipitation Wind Pressure Humidity
    00:00 +22°C° 0 mm 1 mps 734 mmHg 84%
    01:00 +21°C° 0 mm 2 mps 733 mmHg 82%
    02:00 +22°C° 0 mm 1 mps 733 mmHg 81%
    03:00 +22°C° 0 mm 1 mps 733 mmHg 79%
    04:00 +22°C° 0 mm 1 mps 733 mmHg 78%
    05:00 +23°C° 0 mm 1 mps 732 mmHg 74%
    06:00 +25°C° 0 mm 1 mps 732 mmHg 69%
    07:00 +26°C° 0 mm 1 mps 732 mmHg 64%
    08:00 +27°C° 0.7 mm 2 mps 732 mmHg 62%
    09:00 +28°C° 0.7 mm 2 mps 732 mmHg 60%
    10:00 +29°C° 0.7 mm 3 mps 732 mmHg 58%
    11:00 +29°C° 2.3 mm 2 mps 731 mmHg 60%
    12:00 +28°C° 2.3 mm 2 mps 731 mmHg 62%
    13:00 +28°C° 2.3 mm 2 mps 731 mmHg 64%
    14:00 +27°C° 1.1 mm 2 mps 731 mmHg 66%
    15:00 +27°C° 1.1 mm 3 mps 731 mmHg 68%
    16:00 +26°C° 1.1 mm 3 mps 731 mmHg 70%
    17:00 +25°C° 0.6 mm 3 mps 731 mmHg 73%
    18:00 +24°C° 0.6 mm 2 mps 731 mmHg 77%
    19:00 +23°C° 0.6 mm 2 mps 731 mmHg 80%
    20:00 +21°C° 0.4 mm 2 mps 731 mmHg 83%
    21:00 +21°C° 0.4 mm 2 mps 731 mmHg 85%
    22:00 +20°C° 0.4 mm 2 mps 731 mmHg 87%
    23:00 +20°C° 0.2 mm 2 mps 731 mmHg 87%

    Day after tomorrow, 24 July, Tuesday

    Time Temperature Precipitation Wind Pressure Humidity
    00:00 +20°C° 0.2 mm 2 mps 731 mmHg 87%
    01:00 +21°C° 0.2 mm 1 mps 731 mmHg 87%
    02:00 +20°C° 0.1 mm 1 mps 731 mmHg 87%
    03:00 +19°C° 0.1 mm 2 mps 730 mmHg 87%
    04:00 +19°C° 0.1 mm 2 mps 730 mmHg 87%
    05:00 +20°C° 0 mm 2 mps 730 mmHg 82%
    06:00 +23°C° 0 mm 2 mps 731 mmHg 77%
    07:00 +24°C° 0 mm 2 mps 731 mmHg 72%
    08:00 +25°C° 0 mm 2 mps 731 mmHg 66%
    09:00 +27°C° 0 mm 3 mps 731 mmHg 61%
    10:00 +28°C° 0 mm 3 mps 732 mmHg 55%
    11:00 +29°C° 0 mm 3 mps 731 mmHg 54%
    12:00 +29°C° 0 mm 4 mps 731 mmHg 52%
    13:00 +30°C° 0 mm 4 mps 731 mmHg 51%
    14:00 +30°C° 0 mm 4 mps 731 mmHg 52%
    15:00 +30°C° 0 mm 4 mps 731 mmHg 52%
    16:00 +30°C° 0 mm 4 mps 731 mmHg 53%
    17:00 +28°C° 0 mm 4 mps 731 mmHg 58%
    18:00 +26°C° 0 mm 3 mps 731 mmHg 63%
    19:00 +25°C° 0 mm 3 mps 731 mmHg 69%
    20:00 +24°C° 0 mm 3 mps 732 mmHg 71%
    21:00 +22°C° 0 mm 3 mps 732 mmHg 73%
    22:00 +21°C° 0 mm 3 mps 732 mmHg 75%
    23:00 +21°C° 0 mm 3 mps 732 mmHg 76%

    25 July, Wednesday

    Time Temperature Precipitation Wind Pressure Humidity
    00:00 +20°C° 0 mm 2 mps 732 mmHg 77%
    01:00 +20°C° 0 mm 2 mps 732 mmHg 79%
    02:00 +20°C° 0.1 mm 2 mps 732 mmHg 79%
    03:00 +20°C° 0.1 mm 2 mps 732 mmHg 80%
    04:00 +20°C° 0.1 mm 2 mps 732 mmHg 81%
    05:00 +21°C° 0 mm 2 mps 732 mmHg 77%
    06:00 +24°C° 0 mm 2 mps 732 mmHg 73%
    07:00 +25°C° 0 mm 2 mps 732 mmHg 70%
    08:00 +26°C° 0.1 mm 2 mps 732 mmHg 64%
    09:00 +28°C° 0.1 mm 2 mps 732 mmHg 59%
    10:00 +29°C° 0.1 mm 2 mps 732 mmHg 54%
    11:00 +30°C° 0.4 mm 3 mps 732 mmHg 52%
    12:00 +30°C° 0.4 mm 3 mps 732 mmHg 51%
    13:00 +32°C° 0.4 mm 4 mps 732 mmHg 50%
    14:00 +32°C° 0.6 mm 4 mps 732 mmHg 52%
    15:00 +30°C° 0.6 mm 4 mps 732 mmHg 55%
    16:00 +30°C° 0.6 mm 4 mps 732 mmHg 57%
    17:00 +28°C° 0.7 mm 3 mps 732 mmHg 63%
    18:00 +27°C° 0.7 mm 3 mps 732 mmHg 68%
    19:00 +25°C° 0.7 mm 2 mps 732 mmHg 73%
    20:00 +24°C° 0.1 mm 2 mps 732 mmHg 75%
    21:00 +24°C° 0.1 mm 2 mps 733 mmHg 77%
    22:00 +23°C° 0.1 mm 2 mps 733 mmHg 78%
    23:00 +23°C° 0 mm 2 mps 733 mmHg 80%

    26 July, Thursday

    Time Temperature Precipitation Wind Pressure Humidity
    00:00 +21°C° 0 mm 2 mps 733 mmHg 81%
    01:00 +21°C° 0 mm 2 mps 733 mmHg 82%
    02:00 +21°C° 0 mm 2 mps 733 mmHg 82%
    03:00 +20°C° 0 mm 2 mps 733 mmHg 82%
    04:00 +20°C° 0 mm 2 mps 733 mmHg 83%
    05:00 +21°C° 0 mm 2 mps 733 mmHg 79%
    06:00 +24°C° 0 mm 2 mps 733 mmHg 75%
    07:00 +25°C° 0 mm 2 mps 733 mmHg 70%
    08:00 +27°C° 0.1 mm 2 mps 733 mmHg 65%
    09:00 +29°C° 0.1 mm 2 mps 733 mmHg 59%
    10:00 +30°C° 0.1 mm 2 mps 733 mmHg 53%
    11:00 +31°C° 0.4 mm 3 mps 733 mmHg 52%
    12:00 +31°C° 0.4 mm 3 mps 733 mmHg 50%
    13:00 +33°C° 0.4 mm 4 mps 732 mmHg 49%
    14:00 +33°C° 0.4 mm 4 mps 732 mmHg 51%
    15:00 +31°C° 0.4 mm 3 mps 732 mmHg 53%
    16:00 +31°C° 0.4 mm 3 mps 733 mmHg 55%
    17:00 +29°C° 0.2 mm 3 mps 733 mmHg 60%
    18:00 +27°C° 0.2 mm 2 mps 733 mmHg 65%
    19:00 +26°C° 0.2 mm 2 mps 733 mmHg 71%
    20:00 +25°C° 0.1 mm 2 mps 734 mmHg 73%
    21:00 +24°C° 0.1 mm 2 mps 734 mmHg 74%
    22:00 +24°C° 0.1 mm 2 mps 734 mmHg 76%
    23:00 +23°C° 0 mm 2 mps 734 mmHg 77%

    27 July, Friday

    Time Temperature Precipitation Wind Pressure Humidity
    00:00 +23°C° 0 mm 2 mps 734 mmHg 78%
    01:00 +21°C° 0 mm 2 mps 734 mmHg 79%
    02:00 +21°C° 0 mm 2 mps 734 mmHg 80%
    03:00 +21°C° 0 mm 2 mps 734 mmHg 81%
    04:00 +21°C° 0 mm 2 mps 734 mmHg 81%
    05:00 +23°C° 0 mm 2 mps 734 mmHg 77%
    06:00 +25°C° 0 mm 2 mps 734 mmHg 73%
    07:00 +26°C° 0 mm 2 mps 735 mmHg 68%
    08:00 +28°C° 0 mm 2 mps 735 mmHg 63%
    09:00 +30°C° 0 mm 2 mps 734 mmHg 57%
    10:00 +31°C° 0 mm 1 mps 734 mmHg 51%
    11:00 +32°C° 0.1 mm 2 mps 734 mmHg 49%
    12:00 +33°C° 0.1 mm 3 mps 734 mmHg 47%
    13:00 +34°C° 0.1 mm 3 mps 734 mmHg 45%
    14:00 +34°C° 0.2 mm 3 mps 734 mmHg 47%
    15:00 +33°C° 0.2 mm 3 mps 734 mmHg 49%
    16:00 +33°C° 0.2 mm 3 mps 734 mmHg 51%
    17:00 +30°C° 0.1 mm 3 mps 734 mmHg 57%
    18:00 +28°C° 0.1 mm 2 mps 734 mmHg 63%
    19:00 +26°C° 0.1 mm 2 mps 734 mmHg 68%
    20:00 +25°C° 0 mm 1 mps 734 mmHg 70%
    21:00 +25°C° 0 mm 1 mps 735 mmHg 71%
    22:00 +24°C° 0 mm 1 mps 735 mmHg 72%
    23:00 +24°C° 0 mm 1 mps 735 mmHg 73%
    Show more